Long Lake, NY (12847)

11:44 PM EDT on July 21, 2017 (GMT -0400)
Plumley's Garage | | Change Station

Elev 1650 ft 43.97 °N, 74.42 °W | Updated 33 seconds ago

Clear
Clear
65.5 °F
Feels Like 65.5 °F
N
0.0
Wind Variable Wind from NNW
Gusts 0.0 mph

Today
High -- | Low -- °F
--% Chance of Precip.
Yesterday
High -- | Low -- °F
Precip. -- in
Pressure 29.88 in
Visibility 10.0 miles
Clouds Clear
Dew Point 64 °F
Humidity 94%
Rainfall 0.00 in
Snow Depth Not available.
5:34 AM 8:32 PM
Waning Crescent, 2% visible
METAR KSLK 220251Z AUTO 23004KT 10SM CLR 18/16 A2990 RMK AO2 SLP118 T01780161 50006 $
Pressure 29.88 in
Visibility 10.0 miles
Clouds Clear
Dew Point 64 °F
Humidity 94%
Rainfall 0.00 in
Snow Depth Not available.
5:34 AM 8:32 PM
Waning Crescent, 2% visible
METAR KSLK 220251Z AUTO 23004KT 10SM CLR 18/16 A2990 RMK AO2 SLP118 T01780161 50006 $

Get Severe Weather Alerts

Thanks for signing up!

Be on the lookout for a verification email in your inbox.

You'll start receiving the daily forecast at 6 AM.

×

10-Day Weather Forecast

Almanac

Astronomy

Jul. 21, 2017 Rise Set
Actual Time
Civil Twilight
Nautical Twilight
Astronomical Twilight
Moon
Length of Visible Light
Length of Day
Tomorrow will be .
, % of the Moon is Illuminated

Today's Extremes

State Highs State Lows

Community

WunderPhotos

Category 6

Welcome to Category 6. This is the collective home for Weather Underground's featured writeups by Dr. Jeff Masters (right), Bob Henson (left), Chris Burt, and other regular contributors.

Nearby

Air Quality

  Air Quality AQ Index Pollutant
Not available.

Snow Depth

Station Depth Elevation

Earthquake Activity

City Distance Mag. Time & Date
Minimum magnitude displayed is 2.5.

Coastal Water Temperatures

Place Temperature

Stations

Nearby Weather Stations

Station Location Temp. Windchill Dew Point Humidity Wind Precip. Elev Updated Type
                   

Watches & Warnings

There are currently no watches in effect.